TimeBST,TemperatureF,Dew PointF,Humidity,Sea Level PressureIn,VisibilityMPH,Wind Direction,Wind SpeedMPH,Gust SpeedMPH,PrecipitationIn,Events,Conditions,WindDirDegrees,DateUTC
12:20 AM,53.6,48.2,82,30.09,6.2,Calm,Calm,-,N/A,,Mostly Cloudy,0,2013-08-28 23:20:00
12:50 AM,55.4,48.2,77,30.06,6.2,Variable,2.3,-,N/A,,Mostly Cloudy,0,2013-08-28 23:50:00
1:20 AM,55.4,50.0,82,30.06,6.2,Variable,4.6,-,N/A,,Overcast,0,2013-08-29 00:20:00
1:50 AM,55.4,50.0,82,30.06,6.2,Variable,2.3,-,N/A,,Mostly Cloudy,0,2013-08-29 00:50:00
2:20 AM,57.2,51.8,82,30.04,6.2,SW,5.8,-,N/A,,Mostly Cloudy,230,2013-08-29 01:20:00
2:50 AM,57.2,51.8,82,30.04,6.2,SSW,8.1,-,N/A,,Mostly Cloudy,210,2013-08-29 01:50:00
3:20 AM,57.2,53.6,88,30.04,6.2,SW,8.1,-,N/A,,Mostly Cloudy,230,2013-08-29 02:20:00
3:50 AM,57.2,53.6,88,30.04,6.2,SW,12.7,-,N/A,Rain,Light Rain,230,2013-08-29 02:50:00
4:20 AM,57.2,55.4,94,30.01,5.6,SW,11.5,-,N/A,Rain,Light Rain Showers,230,2013-08-29 03:20:00
4:50 AM,57.2,55.4,94,30.01,3.7,SW,12.7,-,N/A,Rain,Light Rain,230,2013-08-29 03:50:00
5:20 AM,57.2,55.4,94,30.01,3.7,WSW,13.8,-,N/A,Rain,Light Rain,240,2013-08-29 04:20:00
5:50 AM,57.2,55.4,94,30.01,4.3,SW,13.8,-,N/A,,Mostly Cloudy,230,2013-08-29 04:50:00
6:20 AM,57.2,55.4,94,30.01,4.3,SW,12.7,-,N/A,,Mostly Cloudy,230,2013-08-29 05:20:00
6:50 AM,57.2,55.4,94,30.01,4.3,WSW,11.5,-,N/A,,Mostly Cloudy,240,2013-08-29 05:50:00
7:20 AM,57.2,55.4,94,30.01,5.6,WSW,12.7,-,N/A,,Mostly Cloudy,240,2013-08-29 06:20:00
7:50 AM,57.2,55.4,94,30.01,6.2,SW,11.5,-,N/A,,Mostly Cloudy,230,2013-08-29 06:50:00
8:20 AM,57.2,55.4,94,30.01,6.2,WSW,9.2,-,N/A,,Mostly Cloudy,240,2013-08-29 07:20:00
8:50 AM,59.0,57.2,94,30.01,6.2,SW,10.4,-,N/A,,Mostly Cloudy,230,2013-08-29 07:50:00
9:20 AM,59.0,57.2,94,30.01,6.2,WSW,9.2,-,N/A,,Mostly Cloudy,250,2013-08-29 08:20:00
9:50 AM,60.8,55.4,82,30.01,6.2,West,13.8,-,N/A,,Mostly Cloudy,270,2013-08-29 08:50:00
10:20 AM,62.6,55.4,77,30.04,6.2,West,12.7,-,N/A,,Mostly Cloudy,260,2013-08-29 09:20:00
10:50 AM,62.6,53.6,72,30.04,6.2,WSW,17.3,-,N/A,,Mostly Cloudy,250,2013-08-29 09:50:00
11:20 AM,62.6,53.6,72,30.04,6.2,WSW,17.3,-,N/A,,Mostly Cloudy,250,2013-08-29 10:20:00
11:50 AM,60.8,55.4,82,30.04,6.2,WSW,13.8,-,N/A,,Mostly Cloudy,250,2013-08-29 10:50:00
12:20 PM,62.6,55.4,77,30.04,6.2,WSW,12.7,-,N/A,,Mostly Cloudy,250,2013-08-29 11:20:00
12:50 PM,62.6,55.4,77,30.04,6.2,WSW,13.8,-,N/A,,Mostly Cloudy,250,2013-08-29 11:50:00
1:20 PM,60.8,55.4,82,30.04,6.2,WSW,12.7,-,N/A,,Mostly Cloudy,250,2013-08-29 12:20:00
1:50 PM,62.6,55.4,77,30.04,6.2,SW,13.8,-,N/A,,Mostly Cloudy,220,2013-08-29 12:50:00
2:20 PM,62.6,57.2,82,30.04,6.2,WSW,8.1,-,N/A,,Mostly Cloudy,250,2013-08-29 13:20:00
2:50 PM,62.6,55.4,77,30.04,6.2,West,11.5,-,N/A,,Mostly Cloudy,260,2013-08-29 13:50:00
3:20 PM,62.6,55.4,77,30.04,6.2,WSW,13.8,-,N/A,,Mostly Cloudy,240,2013-08-29 14:20:00
3:50 PM,62.6,57.2,82,30.04,6.2,WSW,9.2,-,N/A,,Mostly Cloudy,240,2013-08-29 14:50:00
4:20 PM,62.6,55.4,77,30.04,6.2,West,11.5,-,N/A,,Mostly Cloudy,260,2013-08-29 15:20:00
4:50 PM,62.6,55.4,77,30.04,6.2,WSW,12.7,-,N/A,,Mostly Cloudy,240,2013-08-29 15:50:00
5:20 PM,60.8,55.4,82,30.04,6.2,WSW,11.5,-,N/A,,Mostly Cloudy,250,2013-08-29 16:20:00
5:50 PM,60.8,55.4,82,30.04,6.2,WSW,11.5,-,N/A,,Mostly Cloudy,250,2013-08-29 16:50:00
6:20 PM,60.8,55.4,82,30.04,6.2,WSW,11.5,-,N/A,,Mostly Cloudy,250,2013-08-29 17:20:00
6:50 PM,60.8,55.4,82,30.04,6.2,West,10.4,-,N/A,,Mostly Cloudy,260,2013-08-29 17:50:00
7:20 PM,59.0,55.4,88,30.04,6.2,West,9.2,-,N/A,,Mostly Cloudy,260,2013-08-29 18:20:00
7:50 PM,59.0,55.4,88,30.04,6.2,West,9.2,-,N/A,,Mostly Cloudy,260,2013-08-29 18:50:00
8:20 PM,59.0,55.4,88,30.04,6.2,WSW,6.9,-,N/A,,Mostly Cloudy,250,2013-08-29 19:20:00
8:50 PM,59.0,53.6,82,30.04,6.2,West,10.4,-,N/A,,Mostly Cloudy,260,2013-08-29 19:50:00
9:20 PM,59.0,53.6,82,30.04,6.2,West,6.9,-,N/A,,Mostly Cloudy,260,2013-08-29 20:20:00
9:50 PM,59.0,53.6,82,30.04,6.2,West,5.8,-,N/A,,Mostly Cloudy,260,2013-08-29 20:50:00
10:20 PM,55.4,51.8,88,30.04,6.2,SW,6.9,-,N/A,,Mostly Cloudy,220,2013-08-29 21:20:00
10:50 PM,55.4,53.6,94,30.04,6.2,SW,5.8,-,N/A,,Mostly Cloudy,230,2013-08-29 21:50:00
11:20 PM,57.2,53.6,88,30.04,6.2,SSW,5.8,-,N/A,,Mostly Cloudy,210,2013-08-29 22:20:00
11:50 PM,55.4,51.8,88,30.04,6.2,WSW,5.8,-,N/A,,Scattered Clouds,250,2013-08-29 22:50:00